www.pogodaiklimat.ru

Погода и климат >> Архив погоды >> Россия >> Калининградская область >> Калининград


АРХИВ ПОГОДЫ в Калининграде

Время (UTC), дата Ветер
(напр.,м/с)
 
Видим.   Явления Облачность Т
(С)
Тd
(С)
f
(%)
Тe
(С)
Тes
(С)
Комфортность P
(гПа)
Po
(гПа)
Тmin
(С)
Tmax
(С)
R
(мм)
R24
(мм)
S
(см)
09 12.05 З 1-2
{4}
10 км 10/0
[As op]
+12.0 +6.8 70 +12 +15 по сезону 1022.9 1020.2
12 12.05 СЗ 2-4
{5}
10 км 10/0
[As trans]
+14.8 +5.2 53 +15 +20 по сезону 1024.3 1021.6
15 12.05 СЗ 3-6
{6}
10 км 10/0 2000 м
[As op]
+10.9 +2.5 56 +9 +10 холодно 1026.4 1023.7
18 12.05 СЗ 2-5
{7}
10 км слаб. дождь 10/10 1500 м
[Sc As op]
+8.3 +5.3 81 +6 +6 холодно 1027.0 1024.3 +15.4 0.5
21 12.05 СЗ 2-6
{8}
11 км ливневой дождь 10/10 600 м
[Cb cap]
+7.1 +5.6 90 +5 +5 холодно 1028.7 1025.9
00 13.05 штиль 0-1
{6}
4000 м слаб. ливневой дождь 10/10 600 м
[Cb cap]
+6.4 +5.5 94 +5 +5 прохладно 1029.2 1026.4
03 13.05 штиль 0-1
{2}
4000 м дымка {ливн. осадки} 10/10 1000 м
[Sc]
+6.5 +6.0 97 +5 +5 прохладно 1028.8 1026.0 +6.3 12
06 13.05 Ю 1-2
{2}
4000 м дымка {ливн. осадки} 9/0
[Ac As]
+8.3 +6.8 90 +7 +10 прохладно 1028.9 1026.2 +6.3 12
09 13.05 СЗ 2-4
{5}
10 км 10/8 600 м
[Cu med, cong Ac As]
+10.5 +6.5 76 +9 +10 прохладно 1029.6 1026.9
12 13.05 СЗ 2-5
{6}
10 км 10/10 300 м
[Cu Sc]
+8.6 +5.6 81 +7 +7 очень
холодно
1030.4 1027.7
15 13.05 СЗ 2-5
{7}
10 км 10/10 300 м
[Cu Sc]
+8.7 +5.9 83 +7 +7 очень
холодно
1030.1 1027.4
18 13.05 СЗ 2-4
{6}
4000 м дымка 9/8 300 м
[Cu med, cong Ac trans Ci fib]
+8.0 +5.6 85 +6 +6 холодно 1030.5 1027.8 +11.4
21 13.05 С 1-4
{4}
4000 м ливневой дождь 10/8 1000 м
[Cb cap Ac trans]
+7.3 +6.0 91 +6 +6 прохладно 1031.2 1028.4
00 14.05 С 1-3
{5}
4000 м ливневой дождь 10/8 200 м
[Cb cap Ac As]
+7.2 +6.6 96 +6 +6 по сезону 1030.5 1027.7
03 14.05 С 3-6
{8}
10 км {ливн. осадки} 10/0
[Ac As]
+6.1 +2.6 78 +3 +3 холодно 1030.7 1027.9 +6.1 9
06 14.05 С 3-5
{8}
10 км {ливн. осадки} 8/0
[Ac As]
+7.3 +2.4 71 +5 +6 холодно 1031.1 1028.3 +5.8 9
09 14.05 С 3-7
{10}
10 км 8/3 1000 м
[Cu med, cong Ac trans Ci fib]
+9.7 +3.3 64 +8 +13 холодно 1030.4 1027.7
12 14.05 С 4-8
{8}
10 км 10/10 1000 м
[Cu Sc]
+8.9 +4.0 71 +6 +6 очень
холодно
1029.7 1027.0
15 14.05 С 4-7
{8}
10 км 10/5 1000 м
[Sc As trans]
+8.7 +4.6 75 +6 +6 очень
холодно
1028.6 1025.9
18 14.05 С 3-6
{8}
10 км 10/5 1000 м
[Sc As trans]
+8.3 +4.7 78 +6 +6 холодно 1027.9 1025.2 +10.4
21 14.05 С 1-2
{6}
10 км 10/10 1000 м
[Sc]
+8.6 +5.9 83 +8 +8 по сезону 1027.9 1025.2
00 15.05 СВ 3-5
{6}
10 км 10/10 600 м
[Sc]
+8.8 +4.3 73 +6 +6 по сезону 1026.9 1024.2
03 15.05 СВ 2-4
{5}
10 км 10/10 600 м
[Sc]
+8.5 +3.5 71 +7 +7 прохладно 1026.1 1023.4 +8.2
06 15.05 СВ 4-9
{9}
10 км 9/9 1000 м
[Sc]
+10.3 +4.3 66 +8 +8 прохладно 1025.2 1022.5 +8.2
09 15.05 СВ 4-9
{10}
4000 м 9/0
[Ac cast Ci fib]
+12.6 +5.1 60 +11 +17 прохладно 1024.5 1021.8
12 15.05 С 3-8
{9}
4000 м 10/0
[Ac As]
+13.2 +5.3 59 +12 +16 холодно 1023.3 1020.6
15 15.05 С 4-7
{7}
10 км 10/10 1000 м
[Sc]
+12.2 +6.7 69 +10 +10 холодно 1022.2 1019.5
18 15.05 С 1-3
{6}
10 км 10/3 600 м
[Sc As op]
+12.9 +9.5 80 +13 +13 по сезону 1021.5 1018.8 +14.2
21 15.05 СВ 3-6
{7}
10 км слаб. дождь 10/10 1000 м
[Sc]
+13.7 +7.2 65 +13 +13 тепло 1021.6 1018.9
00 16.05 СВ 2-5
{7}
10 км {дождь} 9/0
[Ac As]
+11.5 +7.1 74 +10 +10 по сезону 1020.2 1017.5
03 16.05 СВ 3-5
{6}
10 км 10/0
[Ac und]
+11.7 +5.9 68 +10 +10 по сезону 1019.4 1016.7 +11.4 0.5
06 16.05 В 3-8
{8}
10 км 5/0
[Cs]
+14.7 +7.9 64 +14 +18 тепло 1019.4 1016.7 +11.4 0.5
09 16.05 В 4-8
{9}
10 км 9/0 1500 м
[Ac und Ci sp]
+17.0 +9.9 63 +17 +22 тепло 1018.7 1016.1
12 16.05 В 3-7
{10}
10 км 10/10 600 м
[Sc]
+15.9 +9.8 67 +15 +15 по сезону 1018.7 1016.1
15 16.05 В 3-8
{10}
10 км {дождь} 10/10 600 м
[Sc]
+16.4 +11.4 72 +16 +16 по сезону 1018.2 1015.6 0.4
18 16.05 В 2-6
{10}
10 км 10/10 600 м
[Sc]
+15.7 +11.8 78 +16 +16 тепло 1018.1 1015.5 +18.1 0.4
21 16.05 В 3-8
{8}
4000 м в посл. час ливневой дождь 10/10 300 м
[Cb cap]
+13.9 +11.8 87 +13 +13 тепло 1018.3 1015.6
00 17.05 В 2-5
{6}
4000 м слаб. ливневой дождь 10/10 1000 м
[Cb cap]
+13.6 +12.3 92 +13 +13 тепло 1017.0 1014.3
03 17.05 В 3-7
{7}
4000 м ливневой дождь 10/10 1000 м
[Cb cap]
+13.2 +11.9 92 +12 +12 тепло 1015.7 1013.0 +13.1 0.6
06 17.05 В 3-6
{8}
4000 м дымка {ливн. осадки} 10/10 1000 м
[Cu Sc]
+13.0 +11.1 88 +12 +12 по сезону 1015.2 1012.5 +12.8 5
09 17.05 В 2-6
{8}
4000 м слаб. дождь 10/10 300 м
[Frnb Ns]
+12.8 +11.3 91 +12 +12 по сезону 1014.8 1012.1
12 17.05 В 2-4
{7}
4000 м дымка {дождь} 10/10 300 м
[Cu Sc]
+15.6 +13.6 88 +15 +15 по сезону 1014.9 1012.3
15 17.05 В 2-6
{8}
10 км 10/10 300 м
[Cu Sc]
+18.3 +15.1 82 +19 +19 тепло 1014.0 1011.4 0.9
18 17.05 В 1-2
{7}
10 км 6/4 600 м
[Cu Sc Ac trans]
+17.5 +14.8 84 +19 +19 тепло 1013.8 1011.2 +19.3 0.3
21 17.05 В 1-2
{3}
4000 м дымка 6/0 2000 м
[Ac As Ci fib]
+15.5 +14.0 91 +16 +16 тепло 1014.5 1011.9
00 18.05 В 1-2
{3}
4000 м дымка ясно +14.0 +13.0 94 +14 +14 тепло 1014.6 1012.0
03 18.05 В 1-2
{3}
500 м туман ?/? +13.1 +12.6 97 +13 +13 тепло 1014.7 1012.0 +12.2
06 18.05 В 1-2
{2}
4000 м дымка {туман} 9/0
[Ci fib]
+16.0 +15.3 96 +17 +22 тепло 1014.1 1011.5 +12.2
09 18.05 В 2-3
{8}
4000 м гроза, ливневой дождь 10/10 600 м
[Cb calv]
+16.5 +15.5 94 +17 +17 тепло 1014.1 1011.5
12 18.05 В 3-5
{7}
4000 м дымка {гроза, ливн. осадки} 10/4 600 м
[Sc Ac As]
+18.6 +16.1 85 +20 +22 тепло 1013.2 1010.6
15 18.05 В 3-6
{7}
10 км 9/0
[Ac trans Cs]
+20.7 +16.1 75 +24 +28 комфорт 1011.7 1009.1 2
18 18.05 штиль 0-1
{7}
4000 м дымка 10/6 600 м
[Cu Sc Ac As Ci fib]
+18.4 +16.1 86 +19 +19 тепло 1011.7 1009.1 +21.5 2
21 18.05 штиль 0-1
{5}
4000 м дымка {ливн. осадки} 6/0
[Ac trans]
+15.7 +14.7 94 +15 +15 тепло 1011.6 1009.0
00 19.05 штиль 0-1
{2}
4000 м дымка {ливн. осадки} 8/0 2000 м
[Ac trans]
+15.3 +14.7 96 +15 +15 тепло 1011.5 1008.9
03 19.05 штиль 0-1
{3}
4000 м дымка {ливн. осадки} 9/6 600 м
[Cu Sc Ac trans]
+15.4 +14.8 96 +15 +15 тепло 1011.1 1008.5 +15.0 3
06 19.05 В 1-3
{3}
4000 м в посл. час дождь {ливн. осадки} 9/3 600 м
[Sc Ac cast]
+17.1 +15.6 91 +18 +20 тепло 1011.3 1008.7 +15.0 3

 

Местоположение метеостанции Калининград (Калининградская область, Россия): широта 54.70 долгота 20.62 высота над уровнем моря 21 м.

В архиве по умолчанию представлена погода в Калининграде за последнюю неделю. Архивные данные за месяц целиком и за предыдущие месяцы, начиная с января 2011 года, Вы можете получить, выбрав интересующий диапазон дат из раскрывающегося списка и нажав кнопку "Ввод!".


*Определитесь, кто Вы:
робот инопланетянин человек

Внимание! Время в таблицах - всемирное. Для получения местного времени необходимо прибавить поправку, которая равна 2 ч.

Смотрите также архив погоды в соседних городах и на ближайших метеорологических станциях:

Погода в Рыбном Порту (Калининградская область, Россия) (11 км)
Погода в Пионерском (Калининградская область, Россия) (38 км)
Погода в Балтийске (Калининградская область, Россия) (48 км)
Погода в Мамоново (Калининградская область, Россия) (51 км)
Погода в Рыбачем (Калининградская область, Россия) (53 км)
Погода в Железнодорожном (Калининградская область, Россия) (57 км)
Погода в Ниде (Литва) (74 км)
Погода в Черняховске (Калининградская область, Россия) (76 км)
Погода в Кентшине (Польша) (85 км)
Погода в Шилуте (Литва) (90 км)

Пояснения к столбцам:

Ветер - указаны скорость ветра в м/с - средняя за 10 мин, порывы в срок и между сроками (в фигурных скобках) и направление, откуда дует ветер: С - северный, СВ - северо-восточный, В - восточный, ЮВ - юго-восточный, Ю - южный, ЮЗ - юго-западный, З - западный, СЗ - северо-западный.
Видимость - горизонтальная дальность видимости в метрах или километрах. При видимости от 1 до 10 км при отсутствии осадков обычно наблюдается дымка, при ухудшении видимости до 1 км и менее - туман. В сухую погоду видимость может ухудшаться дымом, пылью или мглою.
Явления - указаны атмосферные явления, наблюдавшиеся в срок или в последний час перед сроком; фигурными скобками обозначены явления, наблюдавшиеся между сроками (за 1-3 часа до срока); квадратными скобками обозначены град или гололедные отложения с указанием их диаметра в мм.
Облачность - указаны через наклонную черту общая и нижняя облачность в баллах и высота нижней границы облаков в метрах; квадратными скобками обозначены формы облаков: Ci - перистые, Cs - перисто-слоистые, Cc - перисто-кучевые, Ac - высококучевые, As - высокослоистые, Sc - слоисто-кучевые, Ns - слоисто-дождевые, Cu - кучевые, Cb - кучево-дождевые. Подробнее классификацию облаков см. в Атласе облаков (PDF).
T - Температура воздуха - температура, измеренная на высоте 2 м над землей.
Td - Температура точки росы - температура, при понижении до которой содержащийся в воздухе водяной пар достигнет насыщения.
f - Относительная влажность воздуха - влажноcть воздуха, измеренная на высоте 2 м над землей.
Te - Эффективная температура - температура, которую ощущает одетый по сезону человек в тени. Характеристика душности погоды. При расчете учитывается влияние влажности воздуха и скорости ветра на теплоощущения человека.
Tes - Эффективная температура на солнце - температура, которую ощущает человек, с поправкой на солнечный нагрев. Характеристика знойности погоды. Зависит от высоты солнца над горизонтом, облачности и скорости ветра. Ночью, в пасмурную погоду, а также при ветре 12 м/с и более поправка равна нулю.
P - Атмосферное давление - приведенное к уровню моря атмосферное давление.
Po - Атмосферное давление - измеренное на уровне метеостанции атмосферное давление.
Tmin - Минимальная температура - минимум температуры воздуха на высоте 2 м над землей.
Tmax - Максимальная температура - максимум температуры воздуха на высоте 2 м над землей.
R - Количество осадков - Количество выпавших осадков за период времени, мм. При наведении курсора мыши на число - период времени, за который выпало указанное количество осадков.
R24 - Количество осадков - Количество выпавших осадков за 24 часа, мм.
S - Снежный покров - Высота снежного покрова, см. При наведении курсора мыши на число - состояние снежного покрова и степень покрытия местности в баллах.